This demonstration page uses our WeatherBlox Daily Observations layout. Learn more.

41.55636, -103.73856

Hourly Observations for February 20, 2020

Temp ( °F °C ) Dew Point ( °F °C ) Humidity (%) Winds ( mph kmh ) Pressure ( in mb ) Visibility ( mi km ) Precip ( " mm )
1:58 am 01:58 Cloudy with Light Snow 17 -8.3 14 -9.8 89 89 E 3 6 30.67 1039 10 16.0934 0 0
2:58 am 02:58 Cloudy with Light Snow Showers 17 -8.2 15 -9.6 90 90 Calm 30.69 1039 10 16.0934 0 0
3:58 am 03:58 Cloudy with Light Snow Showers 18 -8 14 -10 86 86 Calm 30.71 1040 10 16.0934 0 0
4:58 am 04:58 Mostly Cloudy with Light Snow Showers 17 -8.6 11 -11.4 80 80 Calm 30.73 1041 10 16.0934 0 0
5:58 am 05:58 Clear 12 -11.3 8 -13.2 86 86 SSW 10 17 30.72 1040 10 16.0934 0 0
6:58 am 06:58 Clear 11 -11.4 7 -13.7 83 83 SSW 8 13 30.73 1041 10 16.0934 0 0
7:58 am 07:58 Clear 11 -11.9 6 -14.4 82 82 W 7 11 30.73 1041 10 16.0934 0 0
8:58 am 08:58 Clear 8 -13.4 5 -15.1 87 87 SSW 9 15 30.73 1041 10 16.0934 0 0
9:58 am 09:58 Clear 9 -12.7 5 -15 83 83 SSW 10 17 30.72 1040 10 16.0934 0 0
10:58 am 10:58 Clear 8 -13.3 4 -15.8 82 82 SSW 9 15 30.73 1041 10 16.0934 0 0
11:58 am 11:58 Clear 11 -11.9 6 -14.3 83 83 SW 13 20 30.73 1041 10 16.0934 0 0
12:58 pm 12:58 Clear 11 -11.9 6 -14.2 83 83 SW 10 17 30.73 1041 10 16.0934 0 0
1:58 pm 13:58 Sunny 11 -11.7 7 -14 83 83 SW 8 13 30.73 1041 10 16.0934 0 0
2:58 pm 14:58 Sunny 14 -9.8 9 -12.8 79 79 WSW 6 9 30.73 1041 10 16.0934 0 0
3:58 pm 15:58 Sunny 18 -7.7 10 -12.4 69 69 SW 5 7 30.73 1041 10 16.0934 0 0
4:58 pm 16:58 Sunny 22 -5.5 8 -13.1 55 55 W 9 15 30.72 1040 10 16.0934 0 0
5:58 pm 17:58 Sunny 27 -2.9 13 -10.8 55 55 WSW 15 24 30.71 1040 10 16.0934 0 0
6:58 pm 18:58 Sunny 30 -0.9 14 -9.9 51 51 SW 20 31 30.67 1039 10 16.0934 0 0
7:58 pm 19:58 Sunny 33 0.8 13 -10.5 43 43 WSW 15 24 30.63 1037 10 16.0934 0 0
8:58 pm 20:58 Sunny 37 2.8 13 -10.6 37 37 WSW 13 20 30.6 1036 10 16.0934 0 0
9:58 pm 21:58 Sunny 39 4.1 9 -12.6 29 29 WSW 12 19 30.55 1035 10 16.0934 0 0
10:58 pm 22:58 Sunny 40 4.4 12 -11 32 32 WSW 14 22 30.57 1035 10 16.0934 0 0
11:58 pm 23:58 Sunny 36 2.4 15 -9.4 42 42 SSW 14 22 30.56 1035 10 16.0934 0 0

Powered by AerisWeather